Theta_e
327 328 327 328 326 326 326 325 326 327 327 330 334 339 344 346 349 349 351 359 356 357 357 353 351 347 345 342 339 336 334 333 333 333 331 330 328 328 327 328 329 327 328
325 324 325 325 326 327 326 325 324 324 325 327 330 334 338 344 343 347 349 353 355 355 356 355 353 350 346 343 340 337 335 334 334 333 331 330 328 328 328 330 328 327 327
324 323 324 323 326 326 325 325 325 326 325 327 326 328 329 337 342 346 349 347 351 355 355 356 355 352 348 345 342 338 336 335 335 333 331 330 329 328 329 328 329 326 326
323 321 321 323 323 323 323 323 323 324 324 325 323 323 323 326 327 328 343 343 346 349 352 355 355 354 350 347 343 340 337 336 335 333 331 330 330 329 327 327 327 326 326
325 320 320 322 323 321 322 324 324 324 322 322 323 322 322 323 323 326 327 338 341 346 348 352 354 352 351 348 345 342 339 336 335 333 331 330 330 328 327 328 326 325 324
324 320 320 320 321 320 322 322 320 322 323 323 326 325 322 323 324 323 324 328 335 342 346 349 348 350 350 349 346 343 341 337 336 333 332 331 330 329 329 326 325 324 323
321 319 319 318 319 318 318 320 320 320 319 321 319 320 318 321 319 320 325 325 328 334 342 346 346 347 348 348 346 344 343 340 336 334 333 333 330 331 327 325 323 323 322
319 318 316 317 318 317 317 318 320 318 318 321 317 315 311 313 317 321 320 322 324 331 336 344 345 345 344 344 342 344 343 341 338 335 333 331 330 330 327 325 324 322 323
320 318 318 317 317 317 316 317 317 316 314 317 317 316 310 307 316 317 319 319 321 324 331 339 343 344 343 341 341 343 343 342 339 337 334 332 330 329 327 325 323 323 323
319 320 318 318 317 317 316 317 321 318 316 314 317 320 317 316 311 310 315 318 320 322 323 334 343 342 342 340 341 342 341 340 340 337 335 333 331 329 327 325 324 324 322
320 320 319 318 317 318 317 317 317 316 316 314 313 314 314 315 314 311 310 313 318 319 321 323 337 339 341 340 338 339 339 337 336 337 336 333 331 329 327 325 325 325 324
322 320 320 318 318 319 318 317 318 317 315 316 316 315 313 311 311 310 312 313 313 317 319 321 328 338 337 340 341 338 336 334 332 332 332 333 331 329 327 326 326 326 328
315 316 315 314 316 317 318 317 316 316 316 315 314 314 314 313 313 313 312 312 311 316 316 319 326 336 339 336 339 338 337 332 329 328 329 329 330 329 327 326 326 327 330
316 316 316 315 315 317 317 317 316 316 316 315 314 314 315 315 315 314 312 310 310 311 312 313 322 335 334 333 337 337 335 330 328 325 325 326 326 327 327 327 328 329 325
320 317 316 315 315 315 316 316 315 315 315 314 313 314 313 314 314 314 314 314 310 308 310 313 315 326 333 334 334 334 332 330 328 324 323 323 324 324 324 324 323 323 322
318 317 316 316 316 316 317 316 315 315 314 313 313 312 312 312 313 313 313 313 313 311 309 311 314 318 329 334 335 333 330 329 327 323 322 321 321 321 321 320 319 319 318
318 317 317 316 315 315 316 315 315 315 313 311 311 312 310 310 310 310 311 311 311 311 309 313 315 317 321 331 333 332 330 328 326 323 323 321 318 318 318 318 317 317 316
318 317 316 315 315 315 314 313 313 314 312 311 311 313 312 314 310 308 308 308 309 310 310 310 313 314 320 324 330 328 327 327 325 323 321 319 317 316 315 315 314 313 312
317 316 315 314 314 314 313 313 313 313 311 311 311 313 312 312 311 311 311 308 309 311 310 309 310 314 319 326 325 325 324 323 323 323 318 317 316 315 314 313 311 310 308
316 314 313 314 314 314 313 313 312 310 310 311 312 313 313 313 312 311 310 311 310 307 307 307 308 311 314 320 324 320 316 318 317 319 318 316 315 315 313 312 310 309 305
314 313 312 311 311 312 313 309 308 307 307 309 311 313 314 315 316 314 312 312 312 309 307 306 306 307 310 317 319 319 315 314 314 313 312 311 311 311 310 311 310 308 304
311 310 310 309 308 310 307 306 308 306 306 306 307 309 311 313 313 313 313 313 312 310 309 307 304 304 306 309 319 317 313 310 306 312 309 307 310 307 309 308 309 305 303
307 307 307 307 306 305 304 303 305 307 306 306 306 306 306 308 310 310 311 311 311 310 310 310 307 305 305 308 318 316 313 312 309 309 310 305 308 306 308 308 306 304 302
304 304 304 304 303 305 303 302 302 305 305 305 305 305 305 305 306 306 306 307 309 310 311 311 310 309 308 308 315 319 315 314 308 310 310 302 306 305 308 307 305 303 301
301 301 302 302 302 303 302 301 301 302 302 302 304 305 305 304 303 301 305 305 306 307 309 307 307 306 304 302 308 315 313 310 304 305 309 305 304 303 303 302 303 302 300
300 301 302 302 303 302 301 299 300 303 302 302 303 305 304 304 301 299 303 304 304 306 308 309 309 305 305 305 305 313 315 311 308 303 309 305 305 303 299 301 301 300 298
Wind_Speed
5 5 5 4 3 4 4 5 5 6 6 6 6 5 5 5 5 2 3 15 17 15 16 18 17 17 16 14 12 9 9 9 8 8 6 3 2 1 3 3 5 3 5
4 5 5 5 5 5 5 5 5 5 5 5 7 8 9 7 6 4 2 6 11 16 16 17 17 16 15 15 14 12 11 10 9 8 7 4 3 3 2 4 5 3 4
5 5 4 5 4 4 7 6 6 6 6 6 7 6 5 6 6 6 2 4 7 14 16 15 16 17 16 15 15 13 12 11 10 9 8 5 5 2 2 2 5 3 4
6 5 4 4 4 5 4 4 4 4 5 5 5 6 5 5 5 7 6 4 4 6 11 17 17 17 18 17 17 15 14 13 11 10 9 7 5 3 2 2 2 4 3
6 5 4 4 4 4 4 3 3 3 4 5 6 5 6 7 7 6 6 6 5 6 6 12 15 16 15 17 18 17 16 14 12 11 9 8 6 5 3 4 1 2 1
6 5 4 5 5 4 5 4 4 3 3 4 6 7 6 6 5 5 6 6 6 4 7 8 8 11 19 19 18 18 18 15 13 11 10 9 7 5 4 3 2 3 1
4 3 2 4 4 4 4 5 3 4 3 4 4 6 4 7 5 4 5 6 6 6 5 6 6 7 10 20 18 18 18 17 15 13 12 9 8 6 5 3 2 2 1
3 3 1 2 3 4 6 6 5 4 3 3 3 3 5 6 4 9 4 6 7 6 6 6 7 9 8 9 12 17 19 18 17 15 13 11 10 7 5 4 3 2 3
5 4 3 1 1 2 3 4 4 5 4 3 4 1 4 3 10 4 7 4 7 7 5 7 6 9 12 9 12 17 19 19 17 17 14 12 10 8 6 5 4 3 4
6 5 5 5 4 2 2 3 2 2 3 4 4 3 2 2 3 6 3 6 6 7 9 7 4 5 9 8 14 17 20 20 20 18 16 14 12 9 7 6 6 5 3
5 6 6 6 5 3 3 3 4 5 2 2 2 2 3 3 3 3 7 8 9 6 6 4 7 4 9 10 10 13 18 18 17 16 15 14 13 11 8 7 7 6 5
2 5 4 4 3 3 3 3 3 3 4 4 3 3 2 3 3 3 6 9 9 7 8 6 7 5 4 7 13 18 22 20 16 13 13 14 12 11 10 9 9 8 7
1 2 2 2 3 3 3 4 4 5 4 4 5 4 3 4 3 3 3 8 6 8 6 5 6 6 4 5 10 18 23 20 16 14 13 12 11 10 10 11 9 6 9
2 1 1 2 4 4 4 4 3 4 4 4 5 4 4 4 3 3 3 3 9 7 4 8 5 6 3 3 8 21 14 20 16 16 14 13 12 10 9 8 8 10 10
2 2 1 4 6 6 6 6 4 5 5 4 5 5 4 4 4 4 4 4 4 8 9 5 4 7 5 4 8 12 11 18 17 17 15 14 12 10 8 10 12 12 12
3 4 4 5 6 6 6 6 5 6 6 4 4 5 4 3 4 4 3 3 4 4 7 2 5 5 7 2 10 8 8 16 19 17 16 14 12 11 12 12 13 12 13
5 6 6 6 6 6 6 6 7 7 6 6 6 5 7 6 6 4 4 4 5 4 8 7 5 4 9 3 6 6 7 9 9 18 17 15 13 13 14 12 14 12 13
6 6 6 6 6 6 7 7 7 7 6 6 7 8 13 9 7 5 4 6 5 5 4 8 4 5 4 2 5 6 6 7 8 16 17 16 14 14 13 12 13 12 10
7 6 6 7 7 7 7 7 7 6 6 6 7 11 11 10 10 9 9 6 7 6 5 3 4 4 3 2 2 1 6 6 5 13 16 16 15 14 14 11 13 13 11
7 7 7 7 7 6 6 6 6 6 6 7 9 11 11 11 12 11 10 11 8 6 5 5 4 4 3 4 4 5 3 2 7 7 10 10 13 13 13 11 13 15 12
6 7 7 7 6 5 4 5 5 6 7 10 11 10 12 15 19 17 10 11 9 8 6 6 5 4 3 2 5 4 4 5 3 2 7 6 7 6 6 10 12 17 13
6 5 6 6 5 3 6 10 10 10 10 12 12 11 11 16 18 20 22 23 17 12 11 7 4 4 5 2 4 7 6 7 4 3 7 4 5 5 6 5 12 15 13
3 4 5 6 6 6 9 12 15 11 12 12 12 13 13 12 17 16 17 18 21 23 21 15 14 10 8 5 4 10 11 9 7 8 8 6 7 5 5 6 14 16 14
3 4 5 6 6 6 11 13 16 13 12 14 15 15 16 16 15 16 16 18 16 14 16 14 17 16 14 7 5 9 14 10 5 7 5 4 6 5 5 5 18 17 15
3 3 5 7 10 11 14 16 14 11 13 16 15 15 15 16 19 19 17 18 18 18 16 19 20 19 17 15 11 5 7 10 5 5 8 4 5 4 3 4 7 17 16
4 5 8 9 12 12 14 15 13 10 13 11 13 14 18 20 22 17 16 17 19 18 15 13 11 15 20 16 18 14 8 10 6 5 7 5 10 6 4 3 6 7 7
Wind_Direction
35 18 5 11 360 6 25 354 354 339 332 326 317 323 313 308 313 6 142 203 186 192 191 190 187 182 179 178 183 194 203 208 206 205 222 217 193 202 117 119 93 69 69
56 29 6 354 10 7 352 356 346 332 317 327 327 327 313 297 275 286 121 189 216 199 201 195 195 189 189 181 181 191 202 214 214 222 224 203 204 228 114 126 100 82 69
76 45 18 12 1 359 0 356 338 340 351 350 348 334 325 330 325 313 282 166 194 223 209 207 197 193 191 190 187 190 202 214 215 225 227 219 219 171 99 104 111 85 63
77 49 26 7 355 3 349 338 353 352 354 0 340 324 323 330 335 336 314 304 174 195 228 219 198 200 191 196 188 190 199 212 216 224 224 216 213 187 157 153 113 90 67
69 60 20 344 360 353 343 354 350 13 342 336 324 318 317 318 311 313 290 295 268 198 203 225 197 204 200 198 195 193 198 207 211 222 224 222 219 211 177 140 191 97 61
72 51 14 6 11 5 3 354 355 346 335 321 326 315 299 297 294 299 292 279 257 258 202 216 201 197 194 197 202 200 199 199 212 219 221 225 223 226 181 159 154 107 71
86 63 33 8 12 20 347 338 322 335 330 316 333 325 289 283 303 313 315 308 296 276 214 212 196 183 193 194 198 203 203 199 200 216 217 216 215 205 204 182 176 152 134
155 132 80 2 11 6 348 344 353 328 311 350 333 307 344 327 343 338 334 346 350 312 284 221 189 173 178 185 196 195 203 203 201 210 211 213 217 203 214 203 203 164 156
174 175 183 192 323 27 342 327 328 344 320 325 347 126 345 305 325 310 322 321 322 316 297 278 208 181 172 184 186 196 200 196 202 207 205 210 212 204 205 206 198 190 165
194 186 196 199 202 192 300 300 344 339 1 318 339 344 265 243 314 325 338 322 320 315 317 316 265 190 172 178 183 191 195 192 195 205 203 201 207 202 204 202 197 197 172
199 213 212 205 198 199 236 269 308 311 296 281 276 311 330 329 288 290 314 335 323 324 311 303 286 220 180 172 176 186 191 196 195 200 196 195 200 193 191 198 197 197 213
225 226 237 184 192 206 234 261 265 276 280 282 288 288 255 252 289 294 308 321 312 316 311 313 316 265 195 172 179 184 186 188 187 192 180 187 194 196 185 194 191 214 215
201 119 107 173 220 224 237 251 263 265 267 260 263 262 255 257 251 259 293 304 302 316 311 306 307 280 234 161 169 176 186 188 187 175 170 175 179 181 186 195 180 237 163
160 227 251 266 272 264 259 253 247 249 253 263 274 272 263 264 266 263 251 298 306 300 303 303 314 322 315 136 178 184 186 187 181 164 166 174 169 170 176 206 140 132 124
204 178 229 263 271 266 255 250 248 252 248 246 265 274 271 261 266 263 268 266 247 302 299 303 305 321 317 145 164 180 188 183 182 168 166 174 169 161 178 124 116 115 110
217 246 254 257 264 260 252 246 247 244 240 242 241 273 292 295 296 295 294 294 291 285 295 296 292 299 313 148 180 184 187 177 173 169 170 162 156 151 139 134 128 122 118
218 234 242 254 258 259 254 249 247 244 235 235 245 247 264 270 274 268 284 282 277 276 284 295 293 296 322 163 177 175 172 179 183 171 165 155 148 140 140 142 133 134 120
225 231 241 256 260 258 256 253 255 252 236 241 265 270 277 277 276 254 246 265 263 285 282 288 293 302 280 197 189 177 171 177 174 173 157 145 141 141 142 147 135 126 128
228 241 243 249 254 253 254 253 250 239 239 244 257 272 267 255 256 263 267 251 262 266 264 275 285 290 268 246 115 130 168 155 157 156 134 136 137 142 140 155 141 129 127
222 236 240 245 247 252 256 258 253 253 251 254 259 261 254 251 250 258 260 255 246 247 247 252 263 264 257 260 168 144 139 142 138 143 140 139 140 142 143 154 142 130 126
228 231 240 252 256 259 264 289 289 284 278 275 268 262 250 251 253 249 250 248 250 241 248 255 254 245 257 224 188 154 165 139 119 128 135 136 135 134 141 149 151 141 145
245 250 255 259 268 262 287 287 284 283 276 275 276 275 270 269 262 255 250 241 242 248 251 246 238 237 247 257 205 173 155 146 164 182 140 135 144 146 139 154 158 143 149
270 287 290 287 280 270 261 263 263 276 277 276 269 264 263 263 265 263 257 240 238 237 237 250 252 237 249 210 225 182 177 188 175 170 155 160 152 151 169 167 154 150 151
360 321 305 297 288 280 270 269 275 274 270 268 263 261 262 264 256 258 261 260 245 238 234 235 239 246 244 222 231 223 189 166 91 154 162 147 151 157 167 158 161 156 150
340 306 287 285 279 278 268 265 270 278 274 270 266 259 256 254 249 239 244 248 253 251 238 220 221 231 233 211 207 226 200 178 136 177 190 111 157 104 100 136 160 156 150
276 277 278 269 268 275 267 276 282 283 281 277 271 265 250 244 251 234 235 242 248 245 233 235 227 225 225 227 205 212 211 190 156 142 184 130 154 138 137 144 155 156 148